Year,Month,Day,Hour,Minute,Value (Times are PST for temperature in C)
2018,08,14,00,00,21.10
2018,08,14,00,01,21.10
2018,08,14,00,02,21.10
2018,08,14,00,03,21.00
2018,08,14,00,04,20.90
2018,08,14,00,05,20.90
2018,08,14,00,06,20.90
2018,08,14,00,07,20.90
2018,08,14,00,08,20.90
2018,08,14,00,09,20.80
2018,08,14,00,10,20.80
2018,08,14,00,11,20.80
2018,08,14,00,12,20.80
2018,08,14,00,13,20.80
2018,08,14,00,14,20.70
2018,08,14,00,15,20.70
2018,08,14,00,16,20.70
2018,08,14,00,17,20.60
2018,08,14,00,18,20.60
2018,08,14,00,19,20.60
2018,08,14,00,20,20.50
2018,08,14,00,21,20.50
2018,08,14,00,22,20.40
2018,08,14,00,23,20.40
2018,08,14,00,24,20.40
2018,08,14,00,25,20.30
2018,08,14,00,26,20.30
2018,08,14,00,27,20.30
2018,08,14,00,28,20.30
2018,08,14,00,29,20.30
2018,08,14,00,30,20.30
2018,08,14,00,31,20.30
2018,08,14,00,32,20.30
2018,08,14,00,33,20.20
2018,08,14,00,34,20.20
2018,08,14,00,35,20.20
2018,08,14,00,36,20.20
2018,08,14,00,37,20.20
2018,08,14,00,38,20.20
2018,08,14,00,39,20.20
2018,08,14,00,40,20.20
2018,08,14,00,41,20.20
2018,08,14,00,42,20.20
2018,08,14,00,43,20.20
2018,08,14,00,44,20.20
2018,08,14,00,45,20.10
2018,08,14,00,46,20.10
2018,08,14,00,47,20.10
2018,08,14,00,48,20.10
2018,08,14,00,49,20.10
2018,08,14,00,50,20.00
2018,08,14,00,51,20.00
2018,08,14,00,52,20.00
2018,08,14,00,53,20.00
2018,08,14,00,54,19.90
2018,08,14,00,55,19.90
2018,08,14,00,56,19.90
2018,08,14,00,57,19.90
2018,08,14,00,58,19.90
2018,08,14,00,59,19.80
2018,08,14,01,00,19.80
2018,08,14,01,01,19.80
2018,08,14,01,02,19.80
2018,08,14,01,03,19.80
2018,08,14,01,04,19.80
2018,08,14,01,05,19.80
2018,08,14,01,06,19.70
2018,08,14,01,07,19.70
2018,08,14,01,08,19.70
2018,08,14,01,09,19.70
2018,08,14,01,10,19.70
2018,08,14,01,11,19.70
2018,08,14,01,12,19.70
2018,08,14,01,13,19.70
2018,08,14,01,14,19.70
2018,08,14,01,15,19.60
2018,08,14,01,16,19.60
2018,08,14,01,17,19.60
2018,08,14,01,18,19.60
2018,08,14,01,19,19.60
2018,08,14,01,20,19.60
2018,08,14,01,21,19.50
2018,08,14,01,22,19.50
2018,08,14,01,23,19.50
2018,08,14,01,24,19.50
2018,08,14,01,25,19.40
2018,08,14,01,26,19.40
2018,08,14,01,27,19.40
2018,08,14,01,28,19.40
2018,08,14,01,29,19.30
2018,08,14,01,30,19.30
2018,08,14,01,31,19.30
2018,08,14,01,32,19.30
2018,08,14,01,33,19.20
2018,08,14,01,34,19.20
2018,08,14,01,35,19.20
2018,08,14,01,36,19.20
2018,08,14,01,37,19.20
2018,08,14,01,38,19.20
2018,08,14,01,39,19.20
2018,08,14,01,40,19.10
2018,08,14,01,41,19.10
2018,08,14,01,42,19.10
2018,08,14,01,43,19.10
2018,08,14,01,44,19.10
2018,08,14,01,45,19.10
2018,08,14,01,46,19.10
2018,08,14,01,47,19.10
2018,08,14,01,48,19.10
2018,08,14,01,49,19.10
2018,08,14,01,50,19.00
2018,08,14,01,51,19.00
2018,08,14,01,52,19.00
2018,08,14,01,53,19.00
2018,08,14,01,54,19.00
2018,08,14,01,55,19.00
2018,08,14,01,56,19.00
2018,08,14,01,57,19.00
2018,08,14,01,58,19.00
2018,08,14,01,59,19.00
2018,08,14,02,00,19.00
2018,08,14,02,01,19.00
2018,08,14,02,02,19.00
2018,08,14,02,03,18.90
2018,08,14,02,04,18.90
2018,08,14,02,05,18.90
2018,08,14,02,06,18.90
2018,08,14,02,07,18.90
2018,08,14,02,08,18.90
2018,08,14,02,09,18.90
2018,08,14,02,10,18.90
2018,08,14,02,11,18.90
2018,08,14,02,12,18.90
2018,08,14,02,13,18.90
2018,08,14,02,14,18.80
2018,08,14,02,15,18.80
2018,08,14,02,16,18.80
2018,08,14,02,17,18.80
2018,08,14,02,18,18.80
2018,08,14,02,19,18.80
2018,08,14,02,20,18.80
2018,08,14,02,21,18.80
2018,08,14,02,22,18.70
2018,08,14,02,23,18.70
2018,08,14,02,24,18.70
2018,08,14,02,25,18.70
2018,08,14,02,26,18.70
2018,08,14,02,27,18.70
2018,08,14,02,28,18.60
2018,08,14,02,29,18.60
2018,08,14,02,30,18.60
2018,08,14,02,31,18.60
2018,08,14,02,32,18.60
2018,08,14,02,33,18.50
2018,08,14,02,34,18.50
2018,08,14,02,35,18.50
2018,08,14,02,36,18.50
2018,08,14,02,37,18.40
2018,08,14,02,38,18.40
2018,08,14,02,39,18.40
2018,08,14,02,40,18.40
2018,08,14,02,41,18.40
2018,08,14,02,42,18.40
2018,08,14,02,43,18.40
2018,08,14,02,44,18.40
2018,08,14,02,45,18.40
2018,08,14,02,46,18.40
2018,08,14,02,47,18.40
2018,08,14,02,48,18.40
2018,08,14,02,49,18.40
2018,08,14,02,50,18.40
2018,08,14,02,51,18.40
2018,08,14,02,52,18.40
2018,08,14,02,53,18.40
2018,08,14,02,54,18.40
2018,08,14,02,55,18.40
2018,08,14,02,56,18.40
2018,08,14,02,57,18.40
2018,08,14,02,58,18.40
2018,08,14,02,59,18.40
2018,08,14,03,00,18.40
2018,08,14,03,01,18.40
2018,08,14,03,02,18.40
2018,08,14,03,03,18.40
2018,08,14,03,04,18.40
2018,08,14,03,05,18.50
2018,08,14,03,06,18.50
2018,08,14,03,07,18.60
2018,08,14,03,08,18.60
2018,08,14,03,09,18.60
2018,08,14,03,10,18.60
2018,08,14,03,11,18.60
2018,08,14,03,12,18.60
2018,08,14,03,13,18.60
2018,08,14,03,14,18.60
2018,08,14,03,15,18.60
2018,08,14,03,16,18.60
2018,08,14,03,17,18.60
2018,08,14,03,18,18.60
2018,08,14,03,19,18.60
2018,08,14,03,20,18.60
2018,08,14,03,21,18.60
2018,08,14,03,22,18.60
2018,08,14,03,23,18.70
2018,08,14,03,24,18.70
2018,08,14,03,25,18.70
2018,08,14,03,26,18.70
2018,08,14,03,27,18.70
2018,08,14,03,28,18.80
2018,08,14,03,29,18.80
2018,08,14,03,30,18.80
2018,08,14,03,31,18.80
2018,08,14,03,32,18.80
2018,08,14,03,33,18.80
2018,08,14,03,34,18.80
2018,08,14,03,35,18.90
2018,08,14,03,36,18.90
2018,08,14,03,37,18.90
2018,08,14,03,38,18.90
2018,08,14,03,39,18.90
2018,08,14,03,40,18.90
2018,08,14,03,41,18.90
2018,08,14,03,42,18.90
2018,08,14,03,43,18.90
2018,08,14,03,44,18.90
2018,08,14,03,45,18.90
2018,08,14,03,46,18.90
2018,08,14,03,47,18.80
2018,08,14,03,48,18.80
2018,08,14,03,49,18.80
2018,08,14,03,50,18.80
2018,08,14,03,51,18.80
2018,08,14,03,52,18.80
2018,08,14,03,53,18.80
2018,08,14,03,54,18.80
2018,08,14,03,55,18.80
2018,08,14,03,56,18.80
2018,08,14,03,57,18.80
2018,08,14,03,58,18.80
2018,08,14,03,59,18.70
2018,08,14,04,00,18.70
2018,08,14,04,01,18.70
2018,08,14,04,02,18.70
2018,08,14,04,03,18.70
2018,08,14,04,04,18.70
2018,08,14,04,05,18.70
2018,08,14,04,06,18.70
2018,08,14,04,07,18.70
2018,08,14,04,08,18.70
2018,08,14,04,09,18.70
2018,08,14,04,10,18.70
2018,08,14,04,11,18.70
2018,08,14,04,12,18.80
2018,08,14,04,13,18.80
2018,08,14,04,14,18.80
2018,08,14,04,15,18.80
2018,08,14,04,16,18.80
2018,08,14,04,17,18.80
2018,08,14,04,18,18.80
2018,08,14,04,19,18.80
2018,08,14,04,20,18.80
2018,08,14,04,21,18.80
2018,08,14,04,22,18.80
2018,08,14,04,23,18.80
2018,08,14,04,24,18.80
2018,08,14,04,25,18.80
2018,08,14,04,26,18.80
2018,08,14,04,27,18.80
2018,08,14,04,28,18.80
2018,08,14,04,29,18.70
2018,08,14,04,30,18.70
2018,08,14,04,31,18.70
2018,08,14,04,32,18.70
2018,08,14,04,33,18.70
2018,08,14,04,34,18.70
2018,08,14,04,35,18.70
2018,08,14,04,36,18.60
2018,08,14,04,37,18.60
2018,08,14,04,38,18.60
2018,08,14,04,39,18.60
2018,08,14,04,40,18.50
2018,08,14,04,41,18.50
2018,08,14,04,42,18.50
2018,08,14,04,43,18.50
2018,08,14,04,44,18.40
2018,08,14,04,45,18.50
2018,08,14,04,46,18.40
2018,08,14,04,47,18.40
2018,08,14,04,48,18.40
2018,08,14,04,49,18.40
2018,08,14,04,50,18.40
2018,08,14,04,51,18.40
2018,08,14,04,52,18.40
2018,08,14,04,53,18.40
2018,08,14,04,54,18.40
2018,08,14,04,55,18.40
2018,08,14,04,56,18.40
2018,08,14,04,57,18.40
2018,08,14,04,58,18.40
2018,08,14,04,59,18.30
2018,08,14,05,00,18.30
2018,08,14,05,01,18.30
2018,08,14,05,02,18.30
2018,08,14,05,03,18.30
2018,08,14,05,04,18.30
2018,08,14,05,05,18.30
2018,08,14,05,06,18.20
2018,08,14,05,07,18.20
2018,08,14,05,08,18.20
2018,08,14,05,09,18.20
2018,08,14,05,10,18.20
2018,08,14,05,11,18.10
2018,08,14,05,12,18.10
2018,08,14,05,13,18.10
2018,08,14,05,14,18.10
2018,08,14,05,15,18.10
2018,08,14,05,16,18.10
2018,08,14,05,17,18.10
2018,08,14,05,18,18.10
2018,08,14,05,19,18.10
2018,08,14,05,20,18.10
2018,08,14,05,21,18.10
2018,08,14,05,22,18.20
2018,08,14,05,23,18.20
2018,08,14,05,24,18.20
2018,08,14,05,25,18.20
2018,08,14,05,26,18.20
2018,08,14,05,27,18.20
2018,08,14,05,28,18.20
2018,08,14,05,29,18.20
2018,08,14,05,30,18.30
2018,08,14,05,31,18.30
2018,08,14,05,32,18.20
2018,08,14,05,33,18.20
2018,08,14,05,34,18.20
2018,08,14,05,35,18.20
2018,08,14,05,36,18.20
2018,08,14,05,37,18.20
2018,08,14,05,38,18.20
2018,08,14,05,39,18.20
2018,08,14,05,40,18.20
2018,08,14,05,41,18.20
2018,08,14,05,42,18.20
2018,08,14,05,43,18.20
2018,08,14,05,44,18.20
2018,08,14,05,45,18.20
2018,08,14,05,46,18.20
2018,08,14,05,47,18.20
2018,08,14,05,48,18.10
2018,08,14,05,49,18.10
2018,08,14,05,50,18.10
2018,08,14,05,51,18.10
2018,08,14,05,52,18.10
2018,08,14,05,53,18.00
2018,08,14,05,54,18.00
2018,08,14,05,55,18.00
2018,08,14,05,56,17.90
2018,08,14,05,57,17.90
2018,08,14,05,58,17.90
2018,08,14,05,59,17.90
2018,08,14,06,00,17.90
2018,08,14,06,01,17.90
2018,08,14,06,02,17.90
2018,08,14,06,03,17.80
2018,08,14,06,04,17.80
2018,08,14,06,05,17.80
2018,08,14,06,06,17.80
2018,08,14,06,07,17.80
2018,08,14,06,08,17.90
2018,08,14,06,09,17.90
2018,08,14,06,10,17.90
2018,08,14,06,11,17.90
2018,08,14,06,12,17.90
2018,08,14,06,13,17.90
2018,08,14,06,14,17.90
2018,08,14,06,15,17.90
2018,08,14,06,16,17.90
2018,08,14,06,17,17.90
2018,08,14,06,18,17.90
2018,08,14,06,19,17.90
2018,08,14,06,20,17.90
2018,08,14,06,21,17.90
2018,08,14,06,22,17.90
2018,08,14,06,23,17.90
2018,08,14,06,24,17.90
2018,08,14,06,25,17.90
2018,08,14,06,26,17.80
2018,08,14,06,27,17.80
2018,08,14,06,28,17.80
2018,08,14,06,29,17.80
2018,08,14,06,30,17.80
2018,08,14,06,31,17.80
2018,08,14,06,32,17.80
2018,08,14,06,33,17.80
2018,08,14,06,34,17.90
2018,08,14,06,35,17.90
2018,08,14,06,36,17.90
2018,08,14,06,37,18.00
2018,08,14,06,38,18.00
2018,08,14,06,39,18.00
2018,08,14,06,40,18.00
2018,08,14,06,41,18.00
2018,08,14,06,42,18.00
2018,08,14,06,43,18.00
2018,08,14,06,44,18.00
2018,08,14,06,45,17.90
2018,08,14,06,46,17.90
2018,08,14,06,47,17.90
2018,08,14,06,48,17.90
2018,08,14,06,49,17.90
2018,08,14,06,50,17.90
2018,08,14,06,51,17.90
2018,08,14,06,52,17.90
2018,08,14,06,53,17.90
2018,08,14,06,54,17.80
2018,08,14,06,55,17.80
2018,08,14,06,56,17.80
2018,08,14,06,57,17.80
2018,08,14,06,58,17.80
2018,08,14,06,59,17.80
2018,08,14,07,00,17.80
2018,08,14,07,01,17.70
2018,08,14,07,02,17.70
2018,08,14,07,03,17.70
2018,08,14,07,04,17.70
2018,08,14,07,05,17.70
2018,08,14,07,06,17.70
2018,08,14,07,07,17.70
2018,08,14,07,08,17.60
2018,08,14,07,09,17.60
2018,08,14,07,10,17.70
2018,08,14,07,11,17.70
2018,08,14,07,12,17.70
2018,08,14,07,13,17.70
2018,08,14,07,14,17.70
2018,08,14,07,15,17.70
2018,08,14,07,16,17.70
2018,08,14,07,17,17.70
2018,08,14,07,18,17.70
2018,08,14,07,19,17.70
2018,08,14,07,20,17.70
2018,08,14,07,21,17.70
2018,08,14,07,22,17.70
2018,08,14,07,23,17.70
2018,08,14,07,24,17.70
2018,08,14,07,25,17.80
2018,08,14,07,26,17.80
2018,08,14,07,27,17.80
2018,08,14,07,28,17.80
2018,08,14,07,29,17.80
2018,08,14,07,30,17.80
2018,08,14,07,31,17.80
2018,08,14,07,32,17.80
2018,08,14,07,33,17.80
2018,08,14,07,34,17.80
2018,08,14,07,35,17.80
2018,08,14,07,36,17.80
2018,08,14,07,37,17.80
2018,08,14,07,38,17.80
2018,08,14,07,39,17.80
2018,08,14,07,40,17.80
2018,08,14,07,41,17.80
2018,08,14,07,42,17.80
2018,08,14,07,43,17.80
2018,08,14,07,44,17.80
2018,08,14,07,45,17.80
2018,08,14,07,46,17.80
2018,08,14,07,47,17.80
2018,08,14,07,48,17.80
2018,08,14,07,49,17.90
2018,08,14,07,50,17.90
2018,08,14,07,51,17.90
2018,08,14,07,52,17.90
2018,08,14,07,53,17.90
2018,08,14,07,54,17.90
2018,08,14,07,55,17.90
2018,08,14,07,56,17.90
2018,08,14,07,57,17.90
2018,08,14,07,58,17.90
2018,08,14,07,59,17.90
2018,08,14,08,00,17.90
2018,08,14,08,01,18.00
2018,08,14,08,02,18.00
2018,08,14,08,03,18.00
2018,08,14,08,04,18.00
2018,08,14,08,05,18.00
2018,08,14,08,06,18.10
2018,08,14,08,07,18.10
2018,08,14,08,08,18.10
2018,08,14,08,09,18.10
2018,08,14,08,10,18.10
2018,08,14,08,11,18.10
2018,08,14,08,12,18.20
2018,08,14,08,13,18.20
2018,08,14,08,14,18.20
2018,08,14,08,15,18.20
2018,08,14,08,16,18.20
2018,08,14,08,17,18.20
2018,08,14,08,18,18.20
2018,08,14,08,19,18.20
2018,08,14,08,20,18.20
2018,08,14,08,21,18.20
2018,08,14,08,22,18.20
2018,08,14,08,23,18.30
2018,08,14,08,24,18.30
2018,08,14,08,25,18.30
2018,08,14,08,26,18.30
2018,08,14,08,27,18.20
2018,08,14,08,28,18.20
2018,08,14,08,29,18.20
2018,08,14,08,30,18.20
2018,08,14,08,31,18.20
2018,08,14,08,32,18.30
2018,08,14,08,33,18.30
2018,08,14,08,34,18.30
2018,08,14,08,35,18.30
2018,08,14,08,36,18.30
2018,08,14,08,37,18.40
2018,08,14,08,38,18.40
2018,08,14,08,39,18.40
2018,08,14,08,40,18.40
2018,08,14,08,41,18.40
2018,08,14,08,42,18.40
2018,08,14,08,43,18.50
2018,08,14,08,44,18.50
2018,08,14,08,45,18.40
2018,08,14,08,46,18.40
2018,08,14,08,47,18.40
2018,08,14,08,48,18.40
2018,08,14,08,49,18.40
2018,08,14,08,50,18.40
2018,08,14,08,51,18.40
2018,08,14,08,52,18.50
2018,08,14,08,53,18.50
2018,08,14,08,54,18.50
2018,08,14,08,55,18.60
2018,08,14,08,56,18.60
2018,08,14,08,57,18.60
2018,08,14,08,58,18.60
2018,08,14,08,59,18.60
2018,08,14,09,00,18.60
2018,08,14,09,01,18.60
2018,08,14,09,02,18.60
2018,08,14,09,03,18.60
2018,08,14,09,04,18.60
2018,08,14,09,05,18.60
2018,08,14,09,06,18.60
2018,08,14,09,07,18.60
2018,08,14,09,08,18.60
2018,08,14,09,09,18.70
2018,08,14,09,10,18.70
2018,08,14,09,11,18.70
2018,08,14,09,12,18.80
2018,08,14,09,13,18.80
2018,08,14,09,14,18.80
2018,08,14,09,15,18.80
2018,08,14,09,16,18.90
2018,08,14,09,17,18.90
2018,08,14,09,18,19.00
2018,08,14,09,19,19.00
2018,08,14,09,20,19.10
2018,08,14,09,21,19.10
2018,08,14,09,22,19.10
2018,08,14,09,23,19.10
2018,08,14,09,24,19.10
2018,08,14,09,25,19.10
2018,08,14,09,26,19.10
2018,08,14,09,27,19.10
2018,08,14,09,28,19.10
2018,08,14,09,29,19.10
2018,08,14,09,30,19.20
2018,08,14,09,31,19.20
2018,08,14,09,32,19.20
2018,08,14,09,33,19.20
2018,08,14,09,34,19.20
2018,08,14,09,35,19.20
2018,08,14,09,36,19.20
2018,08,14,09,37,19.20
2018,08,14,09,38,19.20
2018,08,14,09,39,19.20
2018,08,14,09,40,19.20
2018,08,14,09,41,19.20
2018,08,14,09,42,19.30
2018,08,14,09,43,19.30
2018,08,14,09,44,19.30
2018,08,14,09,45,19.30
2018,08,14,09,46,19.30
2018,08,14,09,47,19.30
2018,08,14,09,48,19.30
2018,08,14,09,49,19.30
2018,08,14,09,50,19.30
2018,08,14,09,51,19.40
2018,08,14,09,52,19.40
2018,08,14,09,53,19.40
2018,08,14,09,54,19.30
2018,08,14,09,55,19.30
2018,08,14,09,56,19.30
2018,08,14,09,57,19.30
2018,08,14,09,58,19.30
2018,08,14,09,59,19.30
2018,08,14,10,00,19.30
2018,08,14,10,01,19.30
2018,08,14,10,02,19.30
2018,08,14,10,03,19.30
2018,08,14,10,04,19.30
2018,08,14,10,05,19.40
2018,08,14,10,06,19.40
2018,08,14,10,07,19.40
2018,08,14,10,08,19.40
2018,08,14,10,09,19.50
2018,08,14,10,10,19.50
2018,08,14,10,11,19.60
2018,08,14,10,12,19.60
2018,08,14,10,13,19.70
2018,08,14,10,14,19.70
2018,08,14,10,15,19.70
2018,08,14,10,16,19.70
2018,08,14,10,17,19.70
2018,08,14,10,18,19.70
2018,08,14,10,19,19.70
2018,08,14,10,20,19.60
2018,08,14,10,21,19.60
2018,08,14,10,22,19.60
2018,08,14,10,23,19.70
2018,08,14,10,24,19.70
2018,08,14,10,25,19.70
2018,08,14,10,26,19.70
2018,08,14,10,27,19.70
2018,08,14,10,28,19.70
2018,08,14,10,29,19.70
2018,08,14,10,30,19.80
2018,08,14,10,31,19.80
2018,08,14,10,32,19.80
2018,08,14,10,33,19.80
2018,08,14,10,34,19.80
2018,08,14,10,35,19.70
2018,08,14,10,36,19.70
2018,08,14,10,37,19.70
2018,08,14,10,38,19.70
2018,08,14,10,39,19.80
2018,08,14,10,40,19.80
2018,08,14,10,41,19.80
2018,08,14,10,42,19.90
2018,08,14,10,43,19.80
2018,08,14,10,44,19.80
2018,08,14,10,45,19.90
2018,08,14,10,46,19.90
2018,08,14,10,47,19.90
2018,08,14,10,48,19.90
2018,08,14,10,49,19.80
2018,08,14,10,50,19.90
2018,08,14,10,51,19.90
2018,08,14,10,52,19.90
2018,08,14,10,53,19.90
2018,08,14,10,54,19.80
2018,08,14,10,55,19.80
2018,08,14,10,56,19.80
2018,08,14,10,57,19.80
2018,08,14,10,58,19.70
2018,08,14,10,59,19.70
2018,08,14,11,00,19.70
2018,08,14,11,01,19.70
2018,08,14,11,02,19.70
2018,08,14,11,03,19.70
2018,08,14,11,04,19.70
2018,08,14,11,05,19.70
2018,08,14,11,06,19.70
2018,08,14,11,07,19.80
2018,08,14,11,08,19.80
2018,08,14,11,09,19.80
2018,08,14,11,10,19.70
2018,08,14,11,11,19.60
2018,08,14,11,12,19.60
2018,08,14,11,13,19.60
2018,08,14,11,14,19.70
2018,08,14,11,15,19.70
2018,08,14,11,16,19.70
2018,08,14,11,17,19.70
2018,08,14,11,18,19.70
2018,08,14,11,19,19.70
2018,08,14,11,20,19.70
2018,08,14,11,21,19.70
2018,08,14,11,22,19.80
2018,08,14,11,23,19.70
2018,08,14,11,24,19.70
2018,08,14,11,25,19.70
2018,08,14,11,26,19.70
2018,08,14,11,27,19.80
2018,08,14,11,28,19.80
2018,08,14,11,29,19.80
2018,08,14,11,30,19.70
2018,08,14,11,31,19.70
2018,08,14,11,32,19.60
2018,08,14,11,33,19.40
2018,08,14,11,34,19.30
2018,08,14,11,35,19.20
2018,08,14,11,36,19.20
2018,08,14,11,37,19.10
2018,08,14,11,38,19.10
2018,08,14,11,39,19.10
2018,08,14,11,40,19.10
2018,08,14,11,41,19.10
2018,08,14,11,42,19.20
2018,08,14,11,43,19.20
2018,08,14,11,44,19.30
2018,08,14,11,45,19.30
2018,08,14,11,46,19.40
2018,08,14,11,47,19.40
2018,08,14,11,48,19.40
2018,08,14,11,49,19.40
2018,08,14,11,50,19.40
2018,08,14,11,51,19.50
2018,08,14,11,52,19.60
2018,08,14,11,53,19.70
2018,08,14,11,54,19.70
2018,08,14,11,55,19.70
2018,08,14,11,56,19.70
2018,08,14,11,57,19.80
2018,08,14,11,58,19.70
2018,08,14,11,59,19.70
2018,08,14,12,00,19.60
2018,08,14,12,01,19.60
2018,08,14,12,02,19.60
2018,08,14,12,03,19.60
2018,08,14,12,04,19.60
2018,08,14,12,05,19.70
2018,08,14,12,06,19.70
2018,08,14,12,07,19.70
2018,08,14,12,08,19.80
2018,08,14,12,09,19.80
2018,08,14,12,10,19.80
2018,08,14,12,11,19.90
2018,08,14,12,12,20.00
2018,08,14,12,13,20.00
2018,08,14,12,14,20.10
2018,08,14,12,15,20.10
2018,08,14,12,16,20.20
2018,08,14,12,17,20.20
2018,08,14,12,18,20.30
2018,08,14,12,19,20.30
2018,08,14,12,20,20.40
2018,08,14,12,21,20.50
2018,08,14,12,22,20.60
2018,08,14,12,23,20.80
2018,08,14,12,24,20.90
2018,08,14,12,25,21.00
2018,08,14,12,26,21.10
2018,08,14,12,27,21.20
2018,08,14,12,28,21.20
2018,08,14,12,29,21.20
2018,08,14,12,30,21.30
2018,08,14,12,31,21.20
2018,08,14,12,32,21.20
2018,08,14,12,33,21.20
2018,08,14,12,34,21.20
2018,08,14,12,35,21.30
2018,08,14,12,36,21.30
2018,08,14,12,37,21.40
2018,08,14,12,38,21.40
2018,08,14,12,39,21.50
2018,08,14,12,40,21.60
2018,08,14,12,41,21.60
2018,08,14,12,42,21.70
2018,08,14,12,43,21.80
2018,08,14,12,44,21.80
2018,08,14,12,45,21.80
2018,08,14,12,46,21.70
2018,08,14,12,47,21.60
2018,08,14,12,48,21.60
2018,08,14,12,49,21.60
2018,08,14,12,50,21.60
2018,08,14,12,51,21.60
2018,08,14,12,52,21.60
2018,08,14,12,53,21.60
2018,08,14,12,54,21.70
2018,08,14,12,55,21.70
2018,08,14,12,56,21.70
2018,08,14,12,57,21.70
2018,08,14,12,58,21.70
2018,08,14,12,59,21.70
2018,08,14,13,00,21.70
2018,08,14,13,01,21.70
2018,08,14,13,02,21.70
2018,08,14,13,03,21.70
2018,08,14,13,04,21.70
2018,08,14,13,05,21.70
2018,08,14,13,06,21.70
2018,08,14,13,07,21.70
2018,08,14,13,08,21.70
2018,08,14,13,09,21.70
2018,08,14,13,10,21.70
2018,08,14,13,11,21.70
2018,08,14,13,12,21.80
2018,08,14,13,13,21.80
2018,08,14,13,14,21.90
2018,08,14,13,15,21.90
2018,08,14,13,16,21.90
2018,08,14,13,17,21.80
2018,08,14,13,18,21.80
2018,08,14,13,19,21.80
2018,08,14,13,20,21.80
2018,08,14,13,21,21.80
2018,08,14,13,22,21.70
2018,08,14,13,23,21.60
2018,08,14,13,24,21.60
2018,08,14,13,25,21.60
2018,08,14,13,26,21.60
2018,08,14,13,27,21.50
2018,08,14,13,28,21.50
2018,08,14,13,29,21.50
2018,08,14,13,30,21.60
2018,08,14,13,31,21.70
2018,08,14,13,32,21.80
2018,08,14,13,33,21.90
2018,08,14,13,34,22.00
2018,08,14,13,35,22.10
2018,08,14,13,36,22.00
2018,08,14,13,37,22.00
2018,08,14,13,38,21.90
2018,08,14,13,39,21.90
2018,08,14,13,40,22.00
2018,08,14,13,41,22.10
2018,08,14,13,42,22.10
2018,08,14,13,43,22.10
2018,08,14,13,44,22.10
2018,08,14,13,45,22.00
2018,08,14,13,46,22.00
2018,08,14,13,47,22.00
2018,08,14,13,48,22.00
2018,08,14,13,49,22.00
2018,08,14,13,50,22.10
2018,08,14,13,51,22.10
2018,08,14,13,52,22.10
2018,08,14,13,53,22.10
2018,08,14,13,54,22.20
2018,08,14,13,55,22.20
2018,08,14,13,56,22.30
2018,08,14,13,57,22.40
2018,08,14,13,58,22.50
2018,08,14,13,59,22.60
2018,08,14,14,00,22.70
2018,08,14,14,01,22.80
2018,08,14,14,02,22.80
2018,08,14,14,03,22.90
2018,08,14,14,04,22.90
2018,08,14,14,05,23.00
2018,08,14,14,06,23.00
2018,08,14,14,07,23.10
2018,08,14,14,08,23.10
2018,08,14,14,09,23.10
2018,08,14,14,10,23.00
2018,08,14,14,11,22.90
2018,08,14,14,12,22.90
2018,08,14,14,13,22.90
2018,08,14,14,14,22.80
2018,08,14,14,15,22.70
2018,08,14,14,16,22.70
2018,08,14,14,17,22.60
2018,08,14,14,18,22.60
2018,08,14,14,19,22.60
2018,08,14,14,20,22.60
2018,08,14,14,21,22.60
2018,08,14,14,22,22.60
2018,08,14,14,23,22.70
2018,08,14,14,24,22.60
2018,08,14,14,25,22.60
2018,08,14,14,26,22.60
2018,08,14,14,27,22.60
2018,08,14,14,28,22.60
2018,08,14,14,29,22.70
2018,08,14,14,30,22.80
2018,08,14,14,31,22.80
2018,08,14,14,32,22.90
2018,08,14,14,33,23.00
2018,08,14,14,34,23.10
2018,08,14,14,35,23.10
2018,08,14,14,36,23.10
2018,08,14,14,37,23.00
2018,08,14,14,38,23.00
2018,08,14,14,39,22.90
2018,08,14,14,40,22.90
2018,08,14,14,41,22.90
2018,08,14,14,42,22.90
2018,08,14,14,43,22.90
2018,08,14,14,44,23.00
2018,08,14,14,45,23.00
2018,08,14,14,46,23.00
2018,08,14,14,47,23.10
2018,08,14,14,48,23.00
2018,08,14,14,49,23.00
2018,08,14,14,50,23.00
2018,08,14,14,51,23.00
2018,08,14,14,52,23.00
2018,08,14,14,53,23.00
2018,08,14,14,54,23.00
2018,08,14,14,55,23.10
2018,08,14,14,56,23.20
2018,08,14,14,57,23.20
2018,08,14,14,58,23.30
2018,08,14,14,59,23.40
2018,08,14,15,00,23.40
2018,08,14,15,01,23.50
2018,08,14,15,02,23.50
2018,08,14,15,03,23.50
2018,08,14,15,04,23.50
2018,08,14,15,05,23.50
2018,08,14,15,06,23.50
2018,08,14,15,07,23.50
2018,08,14,15,08,23.60
2018,08,14,15,09,23.60
2018,08,14,15,10,23.60
2018,08,14,15,11,23.60
2018,08,14,15,12,23.70
2018,08,14,15,13,23.70
2018,08,14,15,14,23.80
2018,08,14,15,15,23.80
2018,08,14,15,16,23.90
2018,08,14,15,17,23.90
2018,08,14,15,18,24.00
2018,08,14,15,19,24.00
2018,08,14,15,20,24.10
2018,08,14,15,21,24.10
2018,08,14,15,22,24.20
2018,08,14,15,23,24.20
2018,08,14,15,24,24.30
2018,08,14,15,25,24.30
2018,08,14,15,26,24.30
2018,08,14,15,27,24.30
2018,08,14,15,28,24.30
2018,08,14,15,29,24.30
2018,08,14,15,30,24.30
2018,08,14,15,31,24.30
2018,08,14,15,32,24.30
2018,08,14,15,33,24.30
2018,08,14,15,34,24.30
2018,08,14,15,35,24.20
2018,08,14,15,36,24.10
2018,08,14,15,37,23.90
2018,08,14,15,38,23.80
2018,08,14,15,39,23.80
2018,08,14,15,40,23.70
2018,08,14,15,41,23.60
2018,08,14,15,42,23.50
2018,08,14,15,43,23.40
2018,08,14,15,44,23.40
2018,08,14,15,45,23.30
2018,08,14,15,46,23.30
2018,08,14,15,47,23.20
2018,08,14,15,48,23.20
2018,08,14,15,49,23.20
2018,08,14,15,50,23.10
2018,08,14,15,51,23.10
2018,08,14,15,52,23.00
2018,08,14,15,53,23.00
2018,08,14,15,54,23.10
2018,08,14,15,55,23.10
2018,08,14,15,56,23.20
2018,08,14,15,57,23.30
2018,08,14,15,58,23.30
2018,08,14,15,59,23.30
2018,08,14,16,00,23.30
2018,08,14,16,01,23.30
2018,08,14,16,02,23.30
2018,08,14,16,03,23.30
2018,08,14,16,04,23.30
2018,08,14,16,05,23.30
2018,08,14,16,06,23.30
2018,08,14,16,07,23.40
2018,08,14,16,08,23.40
2018,08,14,16,09,23.40
2018,08,14,16,10,23.40
2018,08,14,16,11,23.50
2018,08,14,16,12,23.50
2018,08,14,16,13,23.60
2018,08,14,16,14,23.70
2018,08,14,16,15,23.70
2018,08,14,16,16,23.70
2018,08,14,16,17,23.70
2018,08,14,16,18,23.70
2018,08,14,16,19,23.70
2018,08,14,16,20,23.80
2018,08,14,16,21,23.80
2018,08,14,16,22,23.90
2018,08,14,16,23,24.00
2018,08,14,16,24,24.10
2018,08,14,16,25,24.10
2018,08,14,16,26,24.20
2018,08,14,16,27,24.30
2018,08,14,16,28,24.30
2018,08,14,16,29,24.30
2018,08,14,16,30,24.30
2018,08,14,16,31,24.30
2018,08,14,16,32,24.30
2018,08,14,16,33,24.30
2018,08,14,16,34,24.30
2018,08,14,16,35,24.30
2018,08,14,16,36,24.30
2018,08,14,16,37,24.30
2018,08,14,16,38,24.20
2018,08,14,16,39,24.20
2018,08,14,16,40,24.30
2018,08,14,16,41,24.30
2018,08,14,16,42,24.30
2018,08,14,16,43,24.30
2018,08,14,16,44,24.40
2018,08,14,16,45,24.40
2018,08,14,16,46,24.40
2018,08,14,16,47,24.50
2018,08,14,16,48,24.50
2018,08,14,16,49,24.50
2018,08,14,16,50,24.60
2018,08,14,16,51,24.60
2018,08,14,16,52,24.60
2018,08,14,16,53,24.60
2018,08,14,16,54,24.60
2018,08,14,16,55,24.60
2018,08,14,16,56,24.60
2018,08,14,16,57,24.60
2018,08,14,16,58,24.60
2018,08,14,16,59,24.70
2018,08,14,17,00,24.70
2018,08,14,17,01,24.70
2018,08,14,17,02,24.70
2018,08,14,17,03,24.70
2018,08,14,17,04,24.70
2018,08,14,17,05,24.70
2018,08,14,17,06,24.80
2018,08,14,17,07,24.80
2018,08,14,17,08,24.80
2018,08,14,17,09,24.90
2018,08,14,17,10,24.90
2018,08,14,17,11,25.00
2018,08,14,17,12,25.00
2018,08,14,17,13,25.10
2018,08,14,17,14,25.20
2018,08,14,17,15,25.30
2018,08,14,17,16,25.30
2018,08,14,17,17,25.30
2018,08,14,17,18,25.40
2018,08,14,17,19,25.40